[[{"header":{"parameterUnit":"m.s-1","parameterCategory":1,"la1":30.2991,"la2":30.254,"lo1":-89.0895,"lo2":-89.0444,"dy":0.0017,"dx":0.0017,"nx":28,"ny":28,"refTime":"2025-06-01T21:00:00:Z","depth":0,"parameterNumber":2,"parameterNumberName":"U-component_of_WINDS"},"data":[0,0,0,0,0,0,0,0,0,0,0,0,0,0,0,0,0,0,0,0,0,0,0,0,0,0,0,0,0,0,0,0,0,0,0,0,0,0,0,0,0,0,0,0,0,0,0,0,0,0,0,0,0,0,0,0,0,0,0.1172,0.1173,0,0.1191,0.1192,0.1192,0.1176,0.1175,0.1174,0.1174,0.1193,0.1194,0.1195,0,0,0,0,0,0,0,0,0,0,0,0,0,0.1121,0.1122,0.1172,0.1173,0.1173,0.1191,0.1192,0.1192,0.1176,0.1175,0.1174,0.1173,0.1192,0.1194,0.1195,0,0,0,0,0,0,0,0,0,0,0,0,0,0.1142,0.1122,0.1172,0.1167,0.1167,0.1191,0.1192,0.1192,0.1176,0.1175,0.1174,0.1173,0.1192,0.1193,0.1195,0.1226,0,0,0.12,0.1201,0,0,0,0,0,0,0,0,0.1141,0.1144,0.1167,0.1167,0.1167,0.118,0.118,0.1203,0.1176,0.1172,0.1174,0.1172,0.1189,0.1191,0.1197,0.1227,0.1228,0.1201,0.1202,0.1202,0.1203,0,0,0,0,0,0,0,0.1139,0.1143,0.118,0.1168,0.1168,0.1163,0.1165,0.1185,0.1186,0.1173,0.1171,0.1174,0.1189,0.1195,0.1197,0.1228,0.12,0.1202,0.1203,0.1204,0.1283,0.1284,0,0,0,0,0,0,0.1138,0.1142,0.1179,0.118,0.1151,0.1165,0.1167,0.1177,0.1186,0.1186,0.1175,0.1173,0.1193,0.1195,0.1198,0.1234,0.1202,0.1204,0.1205,0.1282,0.1283,0.1285,0,0,0,0,0,0,0.1137,0.1142,0.1178,0.1161,0.1165,0.1167,0.1178,0.1178,0.1184,0.1188,0.1188,0.1181,0.1192,0.1195,0.1219,0.1234,0.1205,0.1206,0.1281,0.1283,0.1284,0.1306,0,0,0,0,0,0,0.1136,0.1142,0.1154,0.1161,0.1166,0.12,0.1179,0.1179,0.1187,0.1185,0.1194,0.1194,0.1192,0.1216,0.1221,0.1236,0.1208,0.1279,0.1282,0.1283,0.1304,0.1309,0.1312,0,0,0,0,0,0.1134,0.1159,0.1154,0.1159,0.1181,0.1201,0.1203,0.12,0.1189,0.12,0.1202,0.1194,0.1232,0.1219,0.1224,0.124,0.1278,0.1281,0.1283,0.1302,0.1308,0.1312,0,0,0,0,0,0,0.1153,0.116,0.1155,0.1183,0.1191,0.1198,0.1213,0.1206,0.1218,0.1215,0.1211,0.1213,0.1237,0.1241,0.1226,0.127,0.1253,0.1257,0.1266,0.1271,0.1275,0.1273,0.1209,0,0,0,0,0,0.1161,0.1176,0.1181,0.1206,0.121,0.1211,0.1219,0.1216,0.1224,0.1228,0.1232,0.124,0.1253,0.1263,0.1276,0.1305,0.1306,0.1318,0.1322,0.1325,0.1328,0.1343,0.1348,0.1293,0.1293,0.1293,0,0,0.1177,0.1182,0.1192,0.121,0.1216,0.1231,0.1214,0.1231,0.1243,0.123,0.1252,0.1256,0.1264,0.1291,0.1302,0.1294,0.1344,0.1328,0.1331,0.1332,0.1346,0.1351,0.1356,0.1294,0.1294,0.1294,0,0,0.1213,0.122,0.124,0.1246,0.1256,0.1256,0.1261,0.1268,0.127,0.1292,0.1283,0.1296,0.132,0.1326,0.1333,0.1371,0.1363,0.1376,0.1396,0.1411,0.1415,0.1419,0.1432,0.1436,0.1379,0.1379,0.1379,0,0.1232,0.1255,0.1252,0.1269,0.1277,0.1267,0.1287,0.1293,0.1307,0.1312,0.1303,0.1332,0.1337,0.1364,0.1374,0.138,0.1385,0.1374,0.1415,0.1418,0.1422,0.1434,0.1439,0.138,0.138,0.138,0.138,0,0.1277,0.1293,0.1309,0.1321,0.1331,0.135,0.1349,0.1359,0.1355,0.1356,0.1378,0.1384,0.1397,0.1404,0.14,0.143,0.1425,0.1415,0.1399,0.1429,0.144,0.1445,0.1382,0.1381,0.1381,0.1381,0,0,0.1326,0.1336,0.1342,0.1347,0.1356,0.1369,0.1387,0.14,0.1408,0.1418,0.1433,0.1453,0.1444,0.1451,0.1448,0.1461,0.149,0.145,0.145,0.1456,0.1522,0.1529,0.1534,0.1485,0.1486,0.1487,0.1521,0,0.1362,0.1394,0.1391,0.1421,0.1436,0.1426,0.1442,0.1449,0.145,0.1463,0.1464,0.1478,0.1466,0.147,0.1482,0.1484,0.1503,0.1481,0.1498,0.1499,0.1495,0.154,0.1547,0.158,0.1526,0.1527,0.1527,0,0.1409,0.1419,0.1451,0.1457,0.1463,0.1478,0.1489,0.1501,0.1509,0.1509,0.1517,0.1511,0.1529,0.1513,0.1537,0.1522,0.1529,0.1531,0.1532,0.1533,0.1514,0.1542,0.159,0.1595,0.1534,0.1534,0.1533,0,0.144,0.1463,0.1484,0.1489,0.1497,0.1507,0.1511,0.1518,0.1526,0.1536,0.1541,0.1553,0.1559,0.1568,0.1566,0.1555,0.1591,0.1574,0.159,0.159,0.1598,0.1597,0.1647,0.1604,0.1604,0.1603,0.1603,0,0.148,0.15,0.1498,0.1511,0.1533,0.1529,0.155,0.1553,0.1559,0.1572,0.1564,0.1577,0.1573,0.1585,0.1584,0.1604,0.1607,0.1607,0.1606,0.1607,0.1607,0.1611,0.1608,0.1605,0.1604,0.1604,0.1604,0,0.1519,0.1519,0.1541,0.1547,0.1549,0.1564,0.1569,0.1581,0.1582,0.1599,0.1602,0.1603,0.1617,0.1616,0.1631,0.163,0.1654,0.1651,0.1652,0.1651,0.1667,0.1665,0.172,0.1727,0.168,0.168,0.1681,0,0.1544,0.1559,0.1566,0.1574,0.1579,0.1593,0.16,0.1597,0.1606,0.1615,0.1626,0.1639,0.165,0.1672,0.1674,0.1685,0.1682,0.1701,0.1684,0.1684,0.1681,0.168,0.1681,0.1704,0.1704,0.1705,0.1705,0,0.1589,0.1588,0.16,0.1611,0.1621,0.163,0.1638,0.1645,0.1643,0.1653,0.1667,0.1675,0.169,0.1703,0.1714,0.1718,0.1711,0.1711,0.1715,0.1716,0.1715,0.1714,0.166,0.1709,0.1709,0.1708,0.1708,0.1708,0.1621,0.1633,0.164,0.1653,0.1659,0.1667,0.1678,0.168,0.1692,0.1704,0.1702,0.1717,0.1724,0.1738,0.1742,0.1754,0.1747,0.1754,0.1755,0.1757,0.1758,0.1714,0.1756,0.1756,0.1756,0.1756,0.1756,0,0.1664,0.1668,0.168,0.1692,0.1702,0.1695,0.1703,0.1712,0.1726,0.1733,0.1743,0.1759,0.1771,0.1774,0.1785,0.1794,0.1791,0.1797,0.1796,0.1797,0.1764,0.1759,0.1799,0.1799,0.1799,0.1799,0.1799,0.1799,0.1688,0.1708,0.1708,0.173,0.1734,0.1749,0.1754,0.1761,0.1767,0.1784,0.1795,0.1796,0.1801,0.1813,0.1824,0.1824,0.1828,0.1835,0.1834,0.1804,0.1799,0.1795,0.179,0.1837,0.1837,0.1866,0.1866,0.1867]},{"header":{"parameterUnit":"m.s-1","parameterCategory":1,"la1":30.2991,"la2":30.254,"lo1":-89.0895,"lo2":-89.0444,"dy":0.0017,"dx":0.0017,"nx":28,"ny":28,"refTime":"2025-06-01T21:00:00:Z","depth":0,"parameterNumber":3,"parameterNumberName":"V-component_of_WINDS"},"data":[0,0,0,0,0,0,0,0,0,0,0,0,0,0,0,0,0,0,0,0,0,0,0,0,0,0,0,0,0,0,0,0,0,0,0,0,0,0,0,0,0,0,0,0,0,0,0,0,0,0,0,0,0,0,0,0,0,0,-1.0082,-1.0082,0,-1.0097,-1.0098,-1.0098,-1.0112,-1.0112,-1.0113,-1.0113,-1.0127,-1.0127,-1.0127,0,0,0,0,0,0,0,0,0,0,0,0,0,-1.0065,-1.0065,-1.0082,-1.0082,-1.0083,-1.0097,-1.0098,-1.0098,-1.0112,-1.0112,-1.0113,-1.0113,-1.0127,-1.0127,-1.0127,0,0,0,0,0,0,0,0,0,0,0,0,0,-1.0075,-1.0065,-1.0082,-1.0092,-1.0093,-1.0097,-1.0098,-1.0098,-1.0112,-1.0112,-1.0113,-1.0113,-1.0127,-1.0127,-1.0127,-1.0123,0,0,-1.0128,-1.0128,0,0,0,0,0,0,0,0,-1.0075,-1.0076,-1.009,-1.0091,-1.0092,-1.0103,-1.0097,-1.0106,-1.0112,-1.0105,-1.0113,-1.0113,-1.0119,-1.012,-1.0122,-1.0124,-1.0124,-1.0128,-1.0128,-1.0128,-1.0128,0,0,0,0,0,0,0,-1.0074,-1.0075,-1.0088,-1.009,-1.0092,-1.0095,-1.0097,-1.0098,-1.011,-1.0105,-1.0106,-1.0108,-1.0119,-1.0121,-1.0122,-1.0125,-1.0128,-1.0128,-1.0128,-1.0129,-1.0124,-1.0124,0,0,0,0,0,0,-1.0072,-1.0075,-1.0088,-1.0089,-1.0084,-1.0095,-1.0097,-1.0099,-1.011,-1.0112,-1.0108,-1.0109,-1.0121,-1.0122,-1.0123,-1.0118,-1.0128,-1.0129,-1.0129,-1.0124,-1.0124,-1.0124,0,0,0,0,0,0,-1.0072,-1.0073,-1.0087,-1.0082,-1.0084,-1.0095,-1.0098,-1.01,-1.0102,-1.0112,-1.0114,-1.0108,-1.0121,-1.0122,-1.0123,-1.0119,-1.0129,-1.0129,-1.0125,-1.0124,-1.0124,-1.011,0,0,0,0,0,0,-1.0071,-1.0073,-1.0072,-1.0082,-1.0084,-1.0087,-1.0097,-1.01,-1.0102,-1.0104,-1.0112,-1.0114,-1.0121,-1.0122,-1.0123,-1.012,-1.0129,-1.0125,-1.0125,-1.0124,-1.0111,-1.0109,-1.0108,0,0,0,0,0,-1.007,-1.0067,-1.0071,-1.0073,-1.0083,-1.0087,-1.0089,-1.0097,-1.0102,-1.0101,-1.0107,-1.0114,-1.012,-1.0122,-1.0123,-1.012,-1.0125,-1.0125,-1.0124,-1.0111,-1.0109,-1.0108,0,0,0,0,0,0,-1.0055,-1.0068,-1.0074,-1.0073,-1.0079,-1.009,-1.0088,-1.0095,-1.0099,-1.01,-1.011,-1.0112,-1.0112,-1.0116,-1.0119,-1.0117,-1.0123,-1.0123,-1.0113,-1.0112,-1.011,-1.0109,-1.0129,0,0,0,0,0,-1.0052,-1.0054,-1.0066,-1.0064,-1.0067,-1.0077,-1.0079,-1.0086,-1.0092,-1.0094,-1.0101,-1.0106,-1.0109,-1.0111,-1.0114,-1.0112,-1.0114,-1.011,-1.0108,-1.0107,-1.0106,-1.0105,-1.0103,-1.0122,-1.0122,-1.0122,0,0,-1.0045,-1.0052,-1.0053,-1.0061,-1.0067,-1.0069,-1.0079,-1.0081,-1.0082,-1.0094,-1.0095,-1.01,-1.0107,-1.0106,-1.0106,-1.011,-1.0102,-1.0106,-1.0105,-1.0105,-1.0104,-1.0102,-1.0101,-1.0121,-1.0121,-1.0121,0,0,-1.0033,-1.0039,-1.0038,-1.0044,-1.0052,-1.0059,-1.0059,-1.0068,-1.0072,-1.0074,-1.0083,-1.0085,-1.009,-1.0094,-1.0097,-1.0087,-1.0093,-1.0088,-1.008,-1.0078,-1.0077,-1.0076,-1.0072,-1.007,-1.0088,-1.0088,-1.0088,0,-1.0022,-1.0026,-1.0037,-1.0039,-1.0042,-1.0054,-1.0053,-1.0057,-1.0066,-1.0068,-1.0072,-1.0079,-1.0084,-1.0084,-1.0082,-1.0084,-1.0084,-1.0087,-1.0076,-1.0075,-1.0074,-1.007,-1.0069,-1.0087,-1.0087,-1.0087,-1.0087,0,-1.0013,-1.0016,-1.0015,-1.0023,-1.0027,-1.0027,-1.0037,-1.0039,-1.0045,-1.0052,-1.0053,-1.006,-1.0065,-1.0066,-1.0072,-1.0067,-1.0069,-1.0075,-1.0082,-1.0072,-1.0068,-1.0067,-1.0086,-1.0086,-1.0086,-1.0086,0,0,-0.9991,-1.0006,-1.0005,-1.0009,-1.002,-1.0022,-1.0023,-1.0028,-1.0029,-1.0035,-1.0036,-1.004,-1.0046,-1.0049,-1.0056,-1.0055,-1.0046,-1.0061,-1.0061,-1.0057,-1.004,-1.0035,-1.0033,-1.0051,-1.005,-1.005,-1.004,0,-0.998,-0.9983,-0.9993,-0.9992,-0.9994,-1.0006,-1.0007,-1.0013,-1.0019,-1.0022,-1.0029,-1.0031,-1.0039,-1.0041,-1.0041,-1.0047,-1.0043,-1.0048,-1.005,-1.005,-1.0047,-1.0032,-1.0026,-1.0016,-1.0038,-1.0038,-1.0038,0,-0.9967,-0.9973,-0.9973,-0.9983,-0.9985,-0.9985,-0.9991,-0.9994,-1.0001,-1.0005,-1.0009,-1.0017,-1.0018,-1.0026,-1.0027,-1.0031,-1.0032,-1.0036,-1.0036,-1.0035,-1.0043,-1.003,-1.0013,-1.0011,-1.0036,-1.0036,-1.0036,0,-0.995,-0.9958,-0.9958,-0.9962,-0.9974,-0.9974,-0.9979,-0.9987,-0.9989,-0.9995,-0.9996,-1.0001,-1.0004,-1.0007,-1.0016,-1.0021,-1.0016,-1.0024,-1.0019,-1.0019,-1.0017,-1.0017,-0.9999,-1.002,-1.002,-1.002,-1.002,0,-0.9936,-0.9935,-0.9951,-0.9951,-0.9951,-0.9962,-0.9961,-0.9967,-0.9974,-0.9976,-0.9986,-0.9987,-0.9999,-1.0002,-1.0009,-1.0008,-1.001,-1.0013,-1.0014,-1.0011,-1.0011,-1.0012,-1.0012,-1.0019,-1.0019,-1.002,-1.002,0,-0.9916,-0.9927,-0.9928,-0.994,-0.9943,-0.9942,-0.9952,-0.9953,-0.996,-0.9962,-0.9963,-0.9974,-0.9977,-0.9987,-0.9992,-0.9997,-0.9995,-0.9998,-0.9992,-0.9993,-0.9987,-0.9987,-0.9968,-0.9966,-0.9989,-0.9989,-0.9989,0,-0.9906,-0.9906,-0.9918,-0.992,-0.9925,-0.9928,-0.9931,-0.9943,-0.9945,-0.9954,-0.9953,-0.9958,-0.9962,-0.9967,-0.9975,-0.9979,-0.9982,-0.9976,-0.9983,-0.998,-0.9981,-0.9981,-0.998,-0.9973,-0.9973,-0.9973,-0.9973,0,-0.9887,-0.9892,-0.9896,-0.9903,-0.9906,-0.9911,-0.9917,-0.9918,-0.9931,-0.9934,-0.9938,-0.9941,-0.9947,-0.9951,-0.9957,-0.9961,-0.9969,-0.9971,-0.9969,-0.9965,-0.9961,-0.9963,-0.9987,-0.997,-0.9971,-0.9971,-0.9971,-0.9971,-0.9871,-0.9871,-0.988,-0.9884,-0.989,-0.9895,-0.9897,-0.9905,-0.9908,-0.9914,-0.9921,-0.9924,-0.9932,-0.994,-0.9945,-0.9947,-0.9951,-0.9949,-0.9949,-0.9948,-0.9946,-0.9962,-0.9948,-0.9948,-0.9948,-0.9948,-0.9948,0,-0.9851,-0.9857,-0.9862,-0.987,-0.9873,-0.9882,-0.9889,-0.9891,-0.9893,-0.99,-0.9904,-0.9909,-0.9913,-0.9922,-0.9926,-0.9926,-0.993,-0.9927,-0.9927,-0.9927,-0.9943,-0.9943,-0.9924,-0.9924,-0.9924,-0.9924,-0.9924,-0.9924,-0.9841,-0.9842,-0.9849,-0.9852,-0.9859,-0.9863,-0.9866,-0.9871,-0.9876,-0.9881,-0.9885,-0.9891,-0.9898,-0.9904,-0.9908,-0.991,-0.9911,-0.9907,-0.991,-0.9924,-0.9926,-0.9929,-0.9929,-0.9907,-0.9907,-0.9895,-0.9895,-0.9894]}]]